{"data":{"norad_id":62922,"epoch":"2026-05-25T03:05:43.349280Z","epoch_age_seconds":60945,"freshness":"FRESH","line1":"1 62922U 25027R   26145.12897395  .00015914  00000+0  58650-3 0  9995","line2":"2 62922  43.0020  57.0990 0001214 266.5888  93.4825 15.27585053 73230","mean_motion":15.27585053,"eccentricity":0.0001214,"inclination_deg":43.002,"raan_deg":57.099,"arg_perigee_deg":266.5888,"mean_anomaly_deg":93.4825,"bstar":0.0005865,"rev_number":7323,"period_min":94.266436894758,"perigee_km":482.20101942633,"apogee_km":483.86691173678,"semimajor_km":6861.1709655816,"source":"CELESTRAK","updated_at":"2026-05-25T13:38:19.822381Z"}}